owner,sensor,date,latitude,longitude,vertical_datum,sea_water_temperature,qcFlag 
WAVCIS,ioos:station:WAVCIS:CSI15:1,2008-05-01T00:00:00Z,28.8332,-90.8320,10.0,18.29,11111222 
WAVCIS,ioos:station:WAVCIS:CSI15:1,2008-05-01T01:00:00Z,28.8332,-90.8320,10.0,18.36,11111222 
WAVCIS,ioos:station:WAVCIS:CSI15:1,2008-05-01T02:00:00Z,28.8332,-90.8320,10.0,18.31,11111222 
WAVCIS,ioos:station:WAVCIS:CSI15:1,2008-05-01T03:00:00Z,28.8332,-90.8320,10.0,18.31,11111222 
WAVCIS,ioos:station:WAVCIS:CSI15:1,2008-05-01T04:00:00Z,28.8332,-90.8320,10.0,18.27,11111222 
WAVCIS,ioos:station:WAVCIS:CSI15:1,2008-05-01T05:00:00Z,28.8332,-90.8320,10.0,18.28,11111222 
WAVCIS,ioos:station:WAVCIS:CSI15:1,2008-05-01T06:00:00Z,28.8332,-90.8320,10.0,18.26,11111222 
WAVCIS,ioos:station:WAVCIS:CSI15:1,2008-05-01T07:00:00Z,28.8332,-90.8320,10.0,18.25,11111222 
WAVCIS,ioos:station:WAVCIS:CSI15:1,2008-05-01T08:00:00Z,28.8332,-90.8320,10.0,18.19,11111222 
WAVCIS,ioos:station:WAVCIS:CSI15:1,2008-05-01T09:00:00Z,28.8332,-90.8320,10.0,18.17,11111222 
WAVCIS,ioos:station:WAVCIS:CSI15:1,2008-05-01T10:00:00Z,28.8332,-90.8320,10.0,18.12,11111222 
WAVCIS,ioos:station:WAVCIS:CSI15:1,2008-05-01T11:00:00Z,28.8332,-90.8320,10.0,18.1,11111222 
WAVCIS,ioos:station:WAVCIS:CSI15:1,2008-05-01T12:00:00Z,28.8332,-90.8320,10.0,18.16,11111222 
WAVCIS,ioos:station:WAVCIS:CSI15:1,2008-05-01T13:00:00Z,28.8332,-90.8320,10.0,18.21,11111222 
WAVCIS,ioos:station:WAVCIS:CSI15:1,2008-05-01T14:00:00Z,28.8332,-90.8320,10.0,18.1,11111222 
WAVCIS,ioos:station:WAVCIS:CSI15:1,2008-05-01T15:00:00Z,28.8332,-90.8320,10.0,18.12,11111222 
WAVCIS,ioos:station:WAVCIS:CSI15:1,2008-05-01T16:00:00Z,28.8332,-90.8320,10.0,18.19,11111222 
WAVCIS,ioos:station:WAVCIS:CSI15:1,2008-05-01T17:00:00Z,28.8332,-90.8320,10.0,18.25,11111222 
WAVCIS,ioos:station:WAVCIS:CSI15:1,2008-05-01T18:00:00Z,28.8332,-90.8320,10.0,18.24,11111222 
WAVCIS,ioos:station:WAVCIS:CSI15:1,2008-05-01T19:00:00Z,28.8332,-90.8320,10.0,18.28,11111222 
WAVCIS,ioos:station:WAVCIS:CSI15:1,2008-05-01T20:00:00Z,28.8332,-90.8320,10.0,18.28,11111222 
WAVCIS,ioos:station:WAVCIS:CSI15:1,2008-05-01T21:00:00Z,28.8332,-90.8320,10.0,18.29,11111222 
WAVCIS,ioos:station:WAVCIS:CSI15:1,2008-05-01T22:00:00Z,28.8332,-90.8320,10.0,18.24,11111222 
WAVCIS,ioos:station:WAVCIS:CSI15:1,2008-05-01T23:00:00Z,28.8332,-90.8320,10.0,19.22,11111222 
WAVCIS,ioos:station:WAVCIS:CSI15:1,2008-05-02T00:00:00Z,28.8332,-90.8320,10.0,19.03,11111222 
WAVCIS,ioos:station:WAVCIS:CSI15:1,2008-05-02T01:00:00Z,28.8332,-90.8320,10.0,18.74,11111222 
WAVCIS,ioos:station:WAVCIS:CSI15:1,2008-05-02T02:00:00Z,28.8332,-90.8320,10.0,18.62,11111222 
WAVCIS,ioos:station:WAVCIS:CSI15:1,2008-05-02T03:00:00Z,28.8332,-90.8320,10.0,18.63,11111222 
WAVCIS,ioos:station:WAVCIS:CSI15:1,2008-05-02T04:00:00Z,28.8332,-90.8320,10.0,18.6,11111222 
WAVCIS,ioos:station:WAVCIS:CSI15:1,2008-05-02T05:00:00Z,28.8332,-90.8320,10.0,18.52,11111222 
WAVCIS,ioos:station:WAVCIS:CSI15:1,2008-05-02T06:00:00Z,28.8332,-90.8320,10.0,18.43,11111222 
WAVCIS,ioos:station:WAVCIS:CSI15:1,2008-05-02T08:00:00Z,28.8332,-90.8320,10.0,18.42,11111222 
WAVCIS,ioos:station:WAVCIS:CSI15:1,2008-05-02T09:00:00Z,28.8332,-90.8320,10.0,18.42,11111222 
WAVCIS,ioos:station:WAVCIS:CSI15:1,2008-05-02T10:00:00Z,28.8332,-90.8320,10.0,18.43,11111222 
WAVCIS,ioos:station:WAVCIS:CSI15:1,2008-05-02T11:00:00Z,28.8332,-90.8320,10.0,18.42,11111222 
WAVCIS,ioos:station:WAVCIS:CSI15:1,2008-05-02T12:00:00Z,28.8332,-90.8320,10.0,18.47,11111222 
WAVCIS,ioos:station:WAVCIS:CSI15:1,2008-05-02T13:00:00Z,28.8332,-90.8320,10.0,18.55,11111222 
WAVCIS,ioos:station:WAVCIS:CSI15:1,2008-05-02T14:00:00Z,28.8332,-90.8320,10.0,18.5,11111222 
WAVCIS,ioos:station:WAVCIS:CSI15:1,2008-05-02T15:00:00Z,28.8332,-90.8320,10.0,18.52,11111222 
WAVCIS,ioos:station:WAVCIS:CSI15:1,2008-05-02T16:00:00Z,28.8332,-90.8320,10.0,18.47,11111222 
WAVCIS,ioos:station:WAVCIS:CSI15:1,2008-05-02T17:00:00Z,28.8332,-90.8320,10.0,18.51,11111222 
WAVCIS,ioos:station:WAVCIS:CSI15:1,2008-05-02T18:00:00Z,28.8332,-90.8320,10.0,18.67,11111222 
WAVCIS,ioos:station:WAVCIS:CSI15:1,2008-05-02T19:00:00Z,28.8332,-90.8320,10.0,18.69,11111222 
WAVCIS,ioos:station:WAVCIS:CSI15:1,2008-05-02T20:00:00Z,28.8332,-90.8320,10.0,18.54,11111222 
WAVCIS,ioos:station:WAVCIS:CSI15:1,2008-05-02T21:00:00Z,28.8332,-90.8320,10.0,18.47,11111222 
WAVCIS,ioos:station:WAVCIS:CSI15:1,2008-05-02T22:00:00Z,28.8332,-90.8320,10.0,18.5,11111222 
WAVCIS,ioos:station:WAVCIS:CSI15:1,2008-05-02T23:00:00Z,28.8332,-90.8320,10.0,19.55,11111222 
WAVCIS,ioos:station:WAVCIS:CSI15:1,2008-05-03T00:00:00Z,28.8332,-90.8320,10.0,19.25,11111222 
WAVCIS,ioos:station:WAVCIS:CSI15:1,2008-05-03T01:00:00Z,28.8332,-90.8320,10.0,19.26,11111222 
WAVCIS,ioos:station:WAVCIS:CSI15:1,2008-05-03T02:00:00Z,28.8332,-90.8320,10.0,19.16,11111222 
WAVCIS,ioos:station:WAVCIS:CSI15:1,2008-05-03T03:00:00Z,28.8332,-90.8320,10.0,19.12,11111222 
WAVCIS,ioos:station:WAVCIS:CSI15:1,2008-05-03T04:00:00Z,28.8332,-90.8320,10.0,19.14,11111222 
WAVCIS,ioos:station:WAVCIS:CSI15:1,2008-05-03T06:00:00Z,28.8332,-90.8320,10.0,18.67,11111222 
WAVCIS,ioos:station:WAVCIS:CSI15:1,2008-05-03T08:00:00Z,28.8332,-90.8320,10.0,18.46,11111222 
WAVCIS,ioos:station:WAVCIS:CSI15:1,2008-05-03T09:00:00Z,28.8332,-90.8320,10.0,18.47,11111222 
WAVCIS,ioos:station:WAVCIS:CSI15:1,2008-05-03T10:00:00Z,28.8332,-90.8320,10.0,18.5,11111222 
WAVCIS,ioos:station:WAVCIS:CSI15:1,2008-05-03T11:00:00Z,28.8332,-90.8320,10.0,18.49,11111222 
WAVCIS,ioos:station:WAVCIS:CSI15:1,2008-05-03T12:00:00Z,28.8332,-90.8320,10.0,18.49,11111222 
WAVCIS,ioos:station:WAVCIS:CSI15:1,2008-05-03T13:00:00Z,28.8332,-90.8320,10.0,18.55,11111222 
WAVCIS,ioos:station:WAVCIS:CSI15:1,2008-05-03T14:00:00Z,28.8332,-90.8320,10.0,18.53,11111222 
WAVCIS,ioos:station:WAVCIS:CSI15:1,2008-05-03T15:00:00Z,28.8332,-90.8320,10.0,18.48,11111222 
WAVCIS,ioos:station:WAVCIS:CSI15:1,2008-05-03T16:00:00Z,28.8332,-90.8320,10.0,18.46,11111222 
WAVCIS,ioos:station:WAVCIS:CSI15:1,2008-05-03T17:00:00Z,28.8332,-90.8320,10.0,18.46,11111222 
WAVCIS,ioos:station:WAVCIS:CSI15:1,2008-05-03T18:00:00Z,28.8332,-90.8320,10.0,18.6,11111222 
WAVCIS,ioos:station:WAVCIS:CSI15:1,2008-05-03T19:00:00Z,28.8332,-90.8320,10.0,18.69,11111222 
WAVCIS,ioos:station:WAVCIS:CSI15:1,2008-05-03T20:00:00Z,28.8332,-90.8320,10.0,18.71,11111222 
WAVCIS,ioos:station:WAVCIS:CSI15:1,2008-05-03T21:00:00Z,28.8332,-90.8320,10.0,18.68,11111222 
WAVCIS,ioos:station:WAVCIS:CSI15:1,2008-05-03T23:00:00Z,28.8332,-90.8320,10.0,18.73,11111222 
WAVCIS,ioos:station:WAVCIS:CSI15:1,2008-05-04T04:00:00Z,28.8332,-90.8320,10.0,18.84,11111222 
WAVCIS,ioos:station:WAVCIS:CSI15:1,2008-05-04T05:00:00Z,28.8332,-90.8320,10.0,18.73,11111222 
WAVCIS,ioos:station:WAVCIS:CSI15:1,2008-05-04T06:00:00Z,28.8332,-90.8320,10.0,18.73,11111222 
WAVCIS,ioos:station:WAVCIS:CSI15:1,2008-05-04T07:00:00Z,28.8332,-90.8320,10.0,18.79,11111222 
WAVCIS,ioos:station:WAVCIS:CSI15:1,2008-05-04T08:00:00Z,28.8332,-90.8320,10.0,18.88,11111222 
WAVCIS,ioos:station:WAVCIS:CSI15:1,2008-05-04T09:00:00Z,28.8332,-90.8320,10.0,18.83,11111222 
WAVCIS,ioos:station:WAVCIS:CSI15:1,2008-05-04T10:00:00Z,28.8332,-90.8320,10.0,18.8,11111222 
WAVCIS,ioos:station:WAVCIS:CSI15:1,2008-05-04T11:00:00Z,28.8332,-90.8320,10.0,18.77,11111222 
WAVCIS,ioos:station:WAVCIS:CSI15:1,2008-05-04T12:00:00Z,28.8332,-90.8320,10.0,18.78,11111222 
WAVCIS,ioos:station:WAVCIS:CSI15:1,2008-05-04T13:00:00Z,28.8332,-90.8320,10.0,18.74,11111222 
WAVCIS,ioos:station:WAVCIS:CSI15:1,2008-05-04T14:00:00Z,28.8332,-90.8320,10.0,18.71,11111222 
WAVCIS,ioos:station:WAVCIS:CSI15:1,2008-05-04T15:00:00Z,28.8332,-90.8320,10.0,18.69,11111222 
WAVCIS,ioos:station:WAVCIS:CSI15:1,2008-05-04T16:00:00Z,28.8332,-90.8320,10.0,18.68,11111222 
WAVCIS,ioos:station:WAVCIS:CSI15:1,2008-05-04T17:00:00Z,28.8332,-90.8320,10.0,18.77,11111222 
WAVCIS,ioos:station:WAVCIS:CSI15:1,2008-05-04T18:00:00Z,28.8332,-90.8320,10.0,18.99,11111222 
WAVCIS,ioos:station:WAVCIS:CSI15:1,2008-05-04T19:00:00Z,28.8332,-90.8320,10.0,19.09,11111222 
WAVCIS,ioos:station:WAVCIS:CSI15:1,2008-05-04T20:00:00Z,28.8332,-90.8320,10.0,19.15,11111222 
WAVCIS,ioos:station:WAVCIS:CSI15:1,2008-05-04T21:00:00Z,28.8332,-90.8320,10.0,19.24,11111222 
WAVCIS,ioos:station:WAVCIS:CSI15:1,2008-05-04T22:00:00Z,28.8332,-90.8320,10.0,19.34,11111222 
WAVCIS,ioos:station:WAVCIS:CSI15:1,2008-05-04T23:00:00Z,28.8332,-90.8320,10.0,19.28,11111222 
WAVCIS,ioos:station:WAVCIS:CSI15:1,2008-05-05T00:00:00Z,28.8332,-90.8320,10.0,19.14,11111222 
WAVCIS,ioos:station:WAVCIS:CSI15:1,2008-05-05T01:00:00Z,28.8332,-90.8320,10.0,19.02,11111222 
WAVCIS,ioos:station:WAVCIS:CSI15:1,2008-05-05T02:00:00Z,28.8332,-90.8320,10.0,18.89,11111222 
WAVCIS,ioos:station:WAVCIS:CSI15:1,2008-05-05T03:00:00Z,28.8332,-90.8320,10.0,18.91,11111222 
WAVCIS,ioos:station:WAVCIS:CSI15:1,2008-05-05T04:00:00Z,28.8332,-90.8320,10.0,19.02,11111222 
WAVCIS,ioos:station:WAVCIS:CSI15:1,2008-05-05T05:00:00Z,28.8332,-90.8320,10.0,19.0,11111222 
WAVCIS,ioos:station:WAVCIS:CSI15:1,2008-05-05T06:00:00Z,28.8332,-90.8320,10.0,18.95,11111222 
WAVCIS,ioos:station:WAVCIS:CSI15:1,2008-05-05T07:00:00Z,28.8332,-90.8320,10.0,18.95,11111222 
WAVCIS,ioos:station:WAVCIS:CSI15:1,2008-05-05T08:00:00Z,28.8332,-90.8320,10.0,19.25,11111222 
WAVCIS,ioos:station:WAVCIS:CSI15:1,2008-05-05T09:00:00Z,28.8332,-90.8320,10.0,19.2,11111222 
WAVCIS,ioos:station:WAVCIS:CSI15:1,2008-05-05T10:00:00Z,28.8332,-90.8320,10.0,19.19,11111222 
WAVCIS,ioos:station:WAVCIS:CSI15:1,2008-05-05T11:00:00Z,28.8332,-90.8320,10.0,19.16,11111222 
WAVCIS,ioos:station:WAVCIS:CSI15:1,2008-05-05T12:00:00Z,28.8332,-90.8320,10.0,19.15,11111222 
WAVCIS,ioos:station:WAVCIS:CSI15:1,2008-05-05T13:00:00Z,28.8332,-90.8320,10.0,19.03,11111222 
WAVCIS,ioos:station:WAVCIS:CSI15:1,2008-05-05T14:00:00Z,28.8332,-90.8320,10.0,18.89,11111222 
WAVCIS,ioos:station:WAVCIS:CSI15:1,2008-05-05T15:00:00Z,28.8332,-90.8320,10.0,18.98,11111222 
WAVCIS,ioos:station:WAVCIS:CSI15:1,2008-05-05T16:00:00Z,28.8332,-90.8320,10.0,18.98,11111222 
WAVCIS,ioos:station:WAVCIS:CSI15:1,2008-05-05T17:00:00Z,28.8332,-90.8320,10.0,18.96,11111222 
WAVCIS,ioos:station:WAVCIS:CSI15:1,2008-05-05T18:00:00Z,28.8332,-90.8320,10.0,19.0,11111222 
WAVCIS,ioos:station:WAVCIS:CSI15:1,2008-05-05T19:00:00Z,28.8332,-90.8320,10.0,19.04,11111222 
WAVCIS,ioos:station:WAVCIS:CSI15:1,2008-05-05T20:00:00Z,28.8332,-90.8320,10.0,19.04,11111222 
WAVCIS,ioos:station:WAVCIS:CSI15:1,2008-05-05T21:00:00Z,28.8332,-90.8320,10.0,19.05,11111222 
WAVCIS,ioos:station:WAVCIS:CSI15:1,2008-05-05T22:00:00Z,28.8332,-90.8320,10.0,19.04,11111222 
WAVCIS,ioos:station:WAVCIS:CSI15:1,2008-05-05T23:00:00Z,28.8332,-90.8320,10.0,19.03,11111222 
WAVCIS,ioos:station:WAVCIS:CSI15:1,2008-05-06T00:00:00Z,28.8332,-90.8320,10.0,19.01,11111222 
WAVCIS,ioos:station:WAVCIS:CSI15:1,2008-05-06T01:00:00Z,28.8332,-90.8320,10.0,19.1,11111222 
WAVCIS,ioos:station:WAVCIS:CSI15:1,2008-05-06T02:00:00Z,28.8332,-90.8320,10.0,19.02,11111222 
WAVCIS,ioos:station:WAVCIS:CSI15:1,2008-05-06T03:00:00Z,28.8332,-90.8320,10.0,18.98,11111222 
WAVCIS,ioos:station:WAVCIS:CSI15:1,2008-05-06T04:00:00Z,28.8332,-90.8320,10.0,18.88,11111222 
WAVCIS,ioos:station:WAVCIS:CSI15:1,2008-05-06T05:00:00Z,28.8332,-90.8320,10.0,18.96,11111222 
WAVCIS,ioos:station:WAVCIS:CSI15:1,2008-05-06T06:00:00Z,28.8332,-90.8320,10.0,18.84,11111222 
WAVCIS,ioos:station:WAVCIS:CSI15:1,2008-05-06T07:00:00Z,28.8332,-90.8320,10.0,18.68,11111222 
WAVCIS,ioos:station:WAVCIS:CSI15:1,2008-05-06T08:00:00Z,28.8332,-90.8320,10.0,18.6,11111222 
WAVCIS,ioos:station:WAVCIS:CSI15:1,2008-05-06T09:00:00Z,28.8332,-90.8320,10.0,18.63,11111222 
WAVCIS,ioos:station:WAVCIS:CSI15:1,2008-05-06T10:00:00Z,28.8332,-90.8320,10.0,18.63,11111222 
WAVCIS,ioos:station:WAVCIS:CSI15:1,2008-05-06T11:00:00Z,28.8332,-90.8320,10.0,18.64,11111222 
WAVCIS,ioos:station:WAVCIS:CSI15:1,2008-05-06T12:00:00Z,28.8332,-90.8320,10.0,18.56,11111222 
WAVCIS,ioos:station:WAVCIS:CSI15:1,2008-05-06T13:00:00Z,28.8332,-90.8320,10.0,18.57,11111222 
WAVCIS,ioos:station:WAVCIS:CSI15:1,2008-05-06T14:00:00Z,28.8332,-90.8320,10.0,18.57,11111222 
WAVCIS,ioos:station:WAVCIS:CSI15:1,2008-05-06T15:00:00Z,28.8332,-90.8320,10.0,18.92,11111222 
WAVCIS,ioos:station:WAVCIS:CSI15:1,2008-05-06T16:00:00Z,28.8332,-90.8320,10.0,18.98,11111222 
WAVCIS,ioos:station:WAVCIS:CSI15:1,2008-05-06T17:00:00Z,28.8332,-90.8320,10.0,18.87,11111222 
WAVCIS,ioos:station:WAVCIS:CSI15:1,2008-05-06T18:00:00Z,28.8332,-90.8320,10.0,18.56,11111222 
WAVCIS,ioos:station:WAVCIS:CSI15:1,2008-05-06T19:00:00Z,28.8332,-90.8320,10.0,18.56,11111222 
WAVCIS,ioos:station:WAVCIS:CSI15:1,2008-05-06T20:00:00Z,28.8332,-90.8320,10.0,18.68,11111222 
WAVCIS,ioos:station:WAVCIS:CSI15:1,2008-05-06T21:00:00Z,28.8332,-90.8320,10.0,18.61,11111222 
WAVCIS,ioos:station:WAVCIS:CSI15:1,2008-05-06T22:00:00Z,28.8332,-90.8320,10.0,18.47,11111222 
WAVCIS,ioos:station:WAVCIS:CSI15:1,2008-05-06T23:00:00Z,28.8332,-90.8320,10.0,18.39,11111222 
WAVCIS,ioos:station:WAVCIS:CSI15:1,2008-05-07T00:00:00Z,28.8332,-90.8320,10.0,18.49,11111222 
WAVCIS,ioos:station:WAVCIS:CSI15:1,2008-05-07T01:00:00Z,28.8332,-90.8320,10.0,18.75,11111222 
WAVCIS,ioos:station:WAVCIS:CSI15:1,2008-05-07T02:00:00Z,28.8332,-90.8320,10.0,18.97,11111222 
WAVCIS,ioos:station:WAVCIS:CSI15:1,2008-05-07T03:00:00Z,28.8332,-90.8320,10.0,18.94,11111222 
WAVCIS,ioos:station:WAVCIS:CSI15:1,2008-05-07T04:00:00Z,28.8332,-90.8320,10.0,18.97,11111222 
WAVCIS,ioos:station:WAVCIS:CSI15:1,2008-05-07T05:00:00Z,28.8332,-90.8320,10.0,18.88,11111222 
WAVCIS,ioos:station:WAVCIS:CSI15:1,2008-05-07T06:00:00Z,28.8332,-90.8320,10.0,18.87,11111222 
WAVCIS,ioos:station:WAVCIS:CSI15:1,2008-05-07T07:00:00Z,28.8332,-90.8320,10.0,18.9,11111222 
WAVCIS,ioos:station:WAVCIS:CSI15:1,2008-05-07T08:00:00Z,28.8332,-90.8320,10.0,18.9,11111222 
WAVCIS,ioos:station:WAVCIS:CSI15:1,2008-05-07T09:00:00Z,28.8332,-90.8320,10.0,18.48,11111222 
WAVCIS,ioos:station:WAVCIS:CSI15:1,2008-05-07T10:00:00Z,28.8332,-90.8320,10.0,18.48,11111222 
WAVCIS,ioos:station:WAVCIS:CSI15:1,2008-05-07T11:00:00Z,28.8332,-90.8320,10.0,18.58,11111222 
WAVCIS,ioos:station:WAVCIS:CSI15:1,2008-05-07T12:00:00Z,28.8332,-90.8320,10.0,18.64,11111222 
WAVCIS,ioos:station:WAVCIS:CSI15:1,2008-05-07T13:00:00Z,28.8332,-90.8320,10.0,18.59,11111222 
WAVCIS,ioos:station:WAVCIS:CSI15:1,2008-05-07T14:00:00Z,28.8332,-90.8320,10.0,18.57,11111222 
WAVCIS,ioos:station:WAVCIS:CSI15:1,2008-05-07T16:00:00Z,28.8332,-90.8320,10.0,18.57,11111222 
WAVCIS,ioos:station:WAVCIS:CSI15:1,2008-05-07T17:00:00Z,28.8332,-90.8320,10.0,18.59,11111222 
WAVCIS,ioos:station:WAVCIS:CSI15:1,2008-05-07T18:00:00Z,28.8332,-90.8320,10.0,18.59,11111222 
WAVCIS,ioos:station:WAVCIS:CSI15:1,2008-05-07T19:00:00Z,28.8332,-90.8320,10.0,18.59,11111222 
WAVCIS,ioos:station:WAVCIS:CSI15:1,2008-05-07T20:00:00Z,28.8332,-90.8320,10.0,18.59,11111222 
WAVCIS,ioos:station:WAVCIS:CSI15:1,2008-05-07T21:00:00Z,28.8332,-90.8320,10.0,18.75,11111222 
WAVCIS,ioos:station:WAVCIS:CSI15:1,2008-05-07T22:00:00Z,28.8332,-90.8320,10.0,18.98,11111222 
WAVCIS,ioos:station:WAVCIS:CSI15:1,2008-05-07T23:00:00Z,28.8332,-90.8320,10.0,18.74,11111222 
WAVCIS,ioos:station:WAVCIS:CSI15:1,2008-05-08T00:00:00Z,28.8332,-90.8320,10.0,18.89,11111222 
WAVCIS,ioos:station:WAVCIS:CSI15:1,2008-05-08T01:00:00Z,28.8332,-90.8320,10.0,18.82,11111222 
WAVCIS,ioos:station:WAVCIS:CSI15:1,2008-05-08T02:00:00Z,28.8332,-90.8320,10.0,18.33,11111222 
WAVCIS,ioos:station:WAVCIS:CSI15:1,2008-05-08T03:00:00Z,28.8332,-90.8320,10.0,18.23,11111222 
WAVCIS,ioos:station:WAVCIS:CSI15:1,2008-05-08T04:00:00Z,28.8332,-90.8320,10.0,18.22,11111222 
WAVCIS,ioos:station:WAVCIS:CSI15:1,2008-05-08T05:00:00Z,28.8332,-90.8320,10.0,18.23,11111222 
WAVCIS,ioos:station:WAVCIS:CSI15:1,2008-05-08T06:00:00Z,28.8332,-90.8320,10.0,18.49,11111222 
WAVCIS,ioos:station:WAVCIS:CSI15:1,2008-05-08T07:00:00Z,28.8332,-90.8320,10.0,18.52,11111222 
WAVCIS,ioos:station:WAVCIS:CSI15:1,2008-05-08T08:00:00Z,28.8332,-90.8320,10.0,18.63,11111222 
WAVCIS,ioos:station:WAVCIS:CSI15:1,2008-05-08T09:00:00Z,28.8332,-90.8320,10.0,18.71,11111222 
WAVCIS,ioos:station:WAVCIS:CSI15:1,2008-05-08T10:00:00Z,28.8332,-90.8320,10.0,18.8,11111222 
WAVCIS,ioos:station:WAVCIS:CSI15:1,2008-05-08T11:00:00Z,28.8332,-90.8320,10.0,18.75,11111222 
WAVCIS,ioos:station:WAVCIS:CSI15:1,2008-05-08T12:00:00Z,28.8332,-90.8320,10.0,18.6,11111222 
WAVCIS,ioos:station:WAVCIS:CSI15:1,2008-05-08T13:00:00Z,28.8332,-90.8320,10.0,18.57,11111222 
WAVCIS,ioos:station:WAVCIS:CSI15:1,2008-05-08T14:00:00Z,28.8332,-90.8320,10.0,18.62,11111222 
WAVCIS,ioos:station:WAVCIS:CSI15:1,2008-05-08T15:00:00Z,28.8332,-90.8320,10.0,18.77,11111222 
WAVCIS,ioos:station:WAVCIS:CSI15:1,2008-05-08T16:00:00Z,28.8332,-90.8320,10.0,18.83,11111222 
WAVCIS,ioos:station:WAVCIS:CSI15:1,2008-05-08T17:00:00Z,28.8332,-90.8320,10.0,18.71,11111222 
WAVCIS,ioos:station:WAVCIS:CSI15:1,2008-05-08T18:00:00Z,28.8332,-90.8320,10.0,18.96,11111222 
WAVCIS,ioos:station:WAVCIS:CSI15:1,2008-05-08T19:00:00Z,28.8332,-90.8320,10.0,19.05,11111222 
WAVCIS,ioos:station:WAVCIS:CSI15:1,2008-05-08T20:00:00Z,28.8332,-90.8320,10.0,18.71,11111222 
WAVCIS,ioos:station:WAVCIS:CSI15:1,2008-05-08T21:00:00Z,28.8332,-90.8320,10.0,18.49,11111222 
WAVCIS,ioos:station:WAVCIS:CSI15:1,2008-05-08T22:00:00Z,28.8332,-90.8320,10.0,18.48,11111222 
WAVCIS,ioos:station:WAVCIS:CSI15:1,2008-05-08T23:00:00Z,28.8332,-90.8320,10.0,18.69,11111222 
WAVCIS,ioos:station:WAVCIS:CSI15:1,2008-05-09T00:00:00Z,28.8332,-90.8320,10.0,18.67,11111222 
WAVCIS,ioos:station:WAVCIS:CSI15:1,2008-05-09T01:00:00Z,28.8332,-90.8320,10.0,19.01,11111222 
WAVCIS,ioos:station:WAVCIS:CSI15:1,2008-05-09T02:00:00Z,28.8332,-90.8320,10.0,18.99,11111222 
WAVCIS,ioos:station:WAVCIS:CSI15:1,2008-05-09T03:00:00Z,28.8332,-90.8320,10.0,18.99,11111222 
WAVCIS,ioos:station:WAVCIS:CSI15:1,2008-05-09T04:00:00Z,28.8332,-90.8320,10.0,18.94,11111222 
WAVCIS,ioos:station:WAVCIS:CSI15:1,2008-05-09T06:00:00Z,28.8332,-90.8320,10.0,18.69,11111222 
WAVCIS,ioos:station:WAVCIS:CSI15:1,2008-05-09T07:00:00Z,28.8332,-90.8320,10.0,18.71,11111222 
WAVCIS,ioos:station:WAVCIS:CSI15:1,2008-05-09T08:00:00Z,28.8332,-90.8320,10.0,18.74,11111222 
WAVCIS,ioos:station:WAVCIS:CSI15:1,2008-05-09T09:00:00Z,28.8332,-90.8320,10.0,18.89,11111222 
WAVCIS,ioos:station:WAVCIS:CSI15:1,2008-05-09T10:00:00Z,28.8332,-90.8320,10.0,18.87,11111222 
WAVCIS,ioos:station:WAVCIS:CSI15:1,2008-05-09T11:00:00Z,28.8332,-90.8320,10.0,18.76,11111222 
WAVCIS,ioos:station:WAVCIS:CSI15:1,2008-05-09T12:00:00Z,28.8332,-90.8320,10.0,18.71,11111222 
WAVCIS,ioos:station:WAVCIS:CSI15:1,2008-05-09T13:00:00Z,28.8332,-90.8320,10.0,18.73,11111222 
WAVCIS,ioos:station:WAVCIS:CSI15:1,2008-05-09T14:00:00Z,28.8332,-90.8320,10.0,18.92,11111222 
WAVCIS,ioos:station:WAVCIS:CSI15:1,2008-05-09T15:00:00Z,28.8332,-90.8320,10.0,19.07,11111222 
WAVCIS,ioos:station:WAVCIS:CSI15:1,2008-05-09T16:00:00Z,28.8332,-90.8320,10.0,19.36,11111222 
WAVCIS,ioos:station:WAVCIS:CSI15:1,2008-05-09T17:00:00Z,28.8332,-90.8320,10.0,19.17,11111222 
WAVCIS,ioos:station:WAVCIS:CSI15:1,2008-05-09T18:00:00Z,28.8332,-90.8320,10.0,18.98,11111222 
WAVCIS,ioos:station:WAVCIS:CSI15:1,2008-05-09T19:00:00Z,28.8332,-90.8320,10.0,18.95,11111222 
WAVCIS,ioos:station:WAVCIS:CSI15:1,2008-05-09T20:00:00Z,28.8332,-90.8320,10.0,19.31,11111222 
WAVCIS,ioos:station:WAVCIS:CSI15:1,2008-05-09T21:00:00Z,28.8332,-90.8320,10.0,19.36,11111222 
WAVCIS,ioos:station:WAVCIS:CSI15:1,2008-05-09T22:00:00Z,28.8332,-90.8320,10.0,19.45,11111222 
WAVCIS,ioos:station:WAVCIS:CSI15:1,2008-05-09T23:00:00Z,28.8332,-90.8320,10.0,19.25,11111222 
WAVCIS,ioos:station:WAVCIS:CSI15:1,2008-05-10T00:00:00Z,28.8332,-90.8320,10.0,19.35,11111222 
WAVCIS,ioos:station:WAVCIS:CSI15:1,2008-05-10T01:00:00Z,28.8332,-90.8320,10.0,19.6,11111222 
WAVCIS,ioos:station:WAVCIS:CSI15:1,2008-05-10T02:00:00Z,28.8332,-90.8320,10.0,19.64,11111222 
WAVCIS,ioos:station:WAVCIS:CSI15:1,2008-05-10T03:00:00Z,28.8332,-90.8320,10.0,19.57,11111222 
WAVCIS,ioos:station:WAVCIS:CSI15:1,2008-05-10T04:00:00Z,28.8332,-90.8320,10.0,19.62,11111222 
WAVCIS,ioos:station:WAVCIS:CSI15:1,2008-05-10T05:00:00Z,28.8332,-90.8320,10.0,19.62,11111222 
WAVCIS,ioos:station:WAVCIS:CSI15:1,2008-05-10T06:00:00Z,28.8332,-90.8320,10.0,19.57,11111222 
WAVCIS,ioos:station:WAVCIS:CSI15:1,2008-05-10T07:00:00Z,28.8332,-90.8320,10.0,19.48,11111222 
WAVCIS,ioos:station:WAVCIS:CSI15:1,2008-05-10T08:00:00Z,28.8332,-90.8320,10.0,19.42,11111222 
WAVCIS,ioos:station:WAVCIS:CSI15:1,2008-05-10T09:00:00Z,28.8332,-90.8320,10.0,19.52,11111222 
WAVCIS,ioos:station:WAVCIS:CSI15:1,2008-05-10T10:00:00Z,28.8332,-90.8320,10.0,19.49,11111222 
WAVCIS,ioos:station:WAVCIS:CSI15:1,2008-05-10T11:00:00Z,28.8332,-90.8320,10.0,19.18,11111222 
WAVCIS,ioos:station:WAVCIS:CSI15:1,2008-05-10T12:00:00Z,28.8332,-90.8320,10.0,19.08,11111222 
WAVCIS,ioos:station:WAVCIS:CSI15:1,2008-05-10T13:00:00Z,28.8332,-90.8320,10.0,19.38,11111222 
WAVCIS,ioos:station:WAVCIS:CSI15:1,2008-05-10T14:00:00Z,28.8332,-90.8320,10.0,19.16,11111222 
WAVCIS,ioos:station:WAVCIS:CSI15:1,2008-05-10T15:00:00Z,28.8332,-90.8320,10.0,19.22,11111222 
WAVCIS,ioos:station:WAVCIS:CSI15:1,2008-05-10T16:00:00Z,28.8332,-90.8320,10.0,19.39,11111222 
WAVCIS,ioos:station:WAVCIS:CSI15:1,2008-05-10T17:00:00Z,28.8332,-90.8320,10.0,19.57,11111222 
WAVCIS,ioos:station:WAVCIS:CSI15:1,2008-05-10T18:00:00Z,28.8332,-90.8320,10.0,19.45,11111222 
WAVCIS,ioos:station:WAVCIS:CSI15:1,2008-05-10T19:00:00Z,28.8332,-90.8320,10.0,19.66,11111222 
WAVCIS,ioos:station:WAVCIS:CSI15:1,2008-05-10T20:00:00Z,28.8332,-90.8320,10.0,19.46,11111222 
WAVCIS,ioos:station:WAVCIS:CSI15:1,2008-05-10T21:00:00Z,28.8332,-90.8320,10.0,19.53,11111222 
WAVCIS,ioos:station:WAVCIS:CSI15:1,2008-05-10T22:00:00Z,28.8332,-90.8320,10.0,19.66,11111222 
WAVCIS,ioos:station:WAVCIS:CSI15:1,2008-05-10T23:00:00Z,28.8332,-90.8320,10.0,19.68,11111222 
WAVCIS,ioos:station:WAVCIS:CSI15:1,2008-05-11T00:00:00Z,28.8332,-90.8320,10.0,19.73,11111222 
WAVCIS,ioos:station:WAVCIS:CSI15:1,2008-05-11T01:00:00Z,28.8332,-90.8320,10.0,19.63,11111222 
WAVCIS,ioos:station:WAVCIS:CSI15:1,2008-05-11T02:00:00Z,28.8332,-90.8320,10.0,19.67,11111222 
WAVCIS,ioos:station:WAVCIS:CSI15:1,2008-05-11T03:00:00Z,28.8332,-90.8320,10.0,19.69,11111222 
WAVCIS,ioos:station:WAVCIS:CSI15:1,2008-05-11T04:00:00Z,28.8332,-90.8320,10.0,19.89,11111222 
WAVCIS,ioos:station:WAVCIS:CSI15:1,2008-05-11T05:00:00Z,28.8332,-90.8320,10.0,20.09,11111222 
WAVCIS,ioos:station:WAVCIS:CSI15:1,2008-05-11T06:00:00Z,28.8332,-90.8320,10.0,19.99,11111222 
WAVCIS,ioos:station:WAVCIS:CSI15:1,2008-05-11T07:00:00Z,28.8332,-90.8320,10.0,20.14,11111222 
WAVCIS,ioos:station:WAVCIS:CSI15:1,2008-05-11T08:00:00Z,28.8332,-90.8320,10.0,20.65,11111222 
WAVCIS,ioos:station:WAVCIS:CSI15:1,2008-05-11T09:00:00Z,28.8332,-90.8320,10.0,20.47,11111222 
WAVCIS,ioos:station:WAVCIS:CSI15:1,2008-05-11T10:00:00Z,28.8332,-90.8320,10.0,20.38,11111222 
WAVCIS,ioos:station:WAVCIS:CSI15:1,2008-05-11T11:00:00Z,28.8332,-90.8320,10.0,19.68,11111222 
WAVCIS,ioos:station:WAVCIS:CSI15:1,2008-05-11T12:00:00Z,28.8332,-90.8320,10.0,19.59,11111222 
WAVCIS,ioos:station:WAVCIS:CSI15:1,2008-05-11T13:00:00Z,28.8332,-90.8320,10.0,19.26,11111222 
WAVCIS,ioos:station:WAVCIS:CSI15:1,2008-05-11T14:00:00Z,28.8332,-90.8320,10.0,19.08,11111222 
WAVCIS,ioos:station:WAVCIS:CSI15:1,2008-05-11T15:00:00Z,28.8332,-90.8320,10.0,19.23,11111222 
WAVCIS,ioos:station:WAVCIS:CSI15:1,2008-05-11T16:00:00Z,28.8332,-90.8320,10.0,19.28,11111222 
WAVCIS,ioos:station:WAVCIS:CSI15:1,2008-05-11T17:00:00Z,28.8332,-90.8320,10.0,19.36,11111222 
WAVCIS,ioos:station:WAVCIS:CSI15:1,2008-05-11T18:00:00Z,28.8332,-90.8320,10.0,19.41,11111222 
WAVCIS,ioos:station:WAVCIS:CSI15:1,2008-05-11T19:00:00Z,28.8332,-90.8320,10.0,19.42,11111222 
WAVCIS,ioos:station:WAVCIS:CSI15:1,2008-05-11T20:00:00Z,28.8332,-90.8320,10.0,19.47,11111222 
WAVCIS,ioos:station:WAVCIS:CSI15:1,2008-05-11T21:00:00Z,28.8332,-90.8320,10.0,19.52,11111222 
WAVCIS,ioos:station:WAVCIS:CSI15:1,2008-05-11T22:00:00Z,28.8332,-90.8320,10.0,19.49,11111222 
WAVCIS,ioos:station:WAVCIS:CSI15:1,2008-05-11T23:00:00Z,28.8332,-90.8320,10.0,19.64,11111222 